www.pogodaiklimat.ru

Погода и климат >> Архив погоды >> Колумбия >> Barranquilla


ПОГОДА в Barranquilla

  • Прогноз погоды в Barranquilla
  • Монитор погоды в Barranquilla
  • Климат города

АРХИВ ПОГОДЫ в Barranquilla

Время (UTC), дата Ветер
(напр.,м/с)
 
Видим.   Явления Облачность Т
(С)
Тd
(С)
f
(%)
Тe
(С)
Тes
(С)
Комфортность P
(гПа)
Po
(гПа)
Тmin
(С)
Tmax
(С)
R
(мм)
R24
(мм)
S
(см)
18 10.12 С 5 10 км мгла 1/1 450 м
[Cu hum]
+30.3 +22.3 62 +39 +46 очень
душно
1011.1 1007.6
21 10.12 С 5 10 км мгла ясно +29.1 +23.1 70 +39 +41 очень
душно
1009.4 1005.9
00 11.12 С 4 10 км мгла 3/0 300 м
[Ci sp]
+26.8 +23.2 81 +36 +36 очень
душно
1010.4 1006.9 +30.9
09 11.12 С 4 10 км мгла ясно +25.8 +22.8 84 +34 +34 очень
душно
1009.9 1006.4
12 11.12 С 1 10 км мгла 6/1 300 м
[St Cs]
+24.8 +23.1 90 +33 +34 очень
душно
1011.7 1008.2 +24.6
15 11.12 С 5 10 км мгла 6/0
[Cs]
+30.0 +23.5 68 +41 +46 опасность
перегрева
1013.5 1010.0
18 11.12 С 5 10 км 3/1 450 м
[Sc Cs]
+31.1 +22.4 60 +40 +47 очень
душно
1011.5 1008.0
21 11.12 С 6 10 км мгла 4/0
[Cs]
+28.6 +22.8 71 +38 +39 очень
душно
1010.5 1007.0
00 12.12 С 5 10 км мгла 5/4 450 м
[St Cs]
+26.4 +23.9 86 +36 +36 очень
душно
1011.4 1007.9 +31.8
03 12.12 С 5 10 км мгла 5/3 360 м
[St Cs]
+26.3 +23.7 86 +36 +36 очень
душно
1012.5 1009.0
06 12.12 С 7 10 км мгла 5/1 450 м
[St Cs]
+26.1 +24.0 88 +36 +36 очень
душно
1011.7 1008.2
09 12.12 С 5 10 км мгла 3/0
[Ci sp]
+26.0 +23.2 85 +35 +35 очень
душно
1010.8 1007.3
12 12.12 С 5 10 км мгла ясно +26.0 +23.5 86 +35 +36 очень
душно
1012.0 1008.5 +25.1
18 12.12 С 7 15 км мгла ясно +30.6 +23.8 67 +42 +46 опасность
перегрева
1010.8 1007.3
21 12.12 С 6 15 км мгла ясно +28.7 +24.1 76 +40 +41 очень
душно
1009.4 1005.9
03 13.12 С 7 10 км мгла 5/5 360 м
[St]
+26.7 +23.7 84 +37 +37 очень
душно
1011.0 1007.5
06 13.12 С 4 10 км мгла ясно +26.1 +24.3 90 +36 +36 очень
душно
1009.9 1006.4
09 13.12 С 3 5000 м мгла 4/4 360 м
[St]
+25.3 +24.2 94 +35 +35 очень
душно
1009.2 1005.7
12 13.12 штиль 0 6000 м туман на расстоянии 1/1 300 м
[St]
+24.2 +23.3 95 +32 +33 очень
душно
1011.4 1007.9 +23.8
15 13.12 С 4 10 км мгла 1/1 450 м
[Cu hum]
+31.1 +23.2 63 +42 +48 опасность
перегрева
1012.5 1009.0
18 13.12 С 6 10 км мгла ясно +30.2 +23.1 66 +40 +46 очень
душно
1010.8 1007.3
21 13.12 СЗ 5 10 км мгла ясно +29.3 +23.9 73 +41 +42 опасность
перегрева
1008.8 1005.3
00 14.12 С 4 10 км мгла 1/1 450 м
[St]
+27.0 +24.3 85 +38 +38 очень
душно
1009.8 1006.3 +31.2
03 14.12 С 4 10 км мгла ясно +26.6 +24.4 88 +37 +37 очень
душно
1010.6 1007.1
09 14.12 С 3 10 км мгла ясно +26.0 +24.6 92 +37 +37 очень
душно
1010.4 1006.9
12 14.12 СВ 3 8000 м мгла 4/4 300 м
[St]
+25.7 +24.2 91 +36 +36 очень
душно
1012.5 1009.0 +25.6
15 14.12 СВ 3 10 км мгла ясно +30.5 +23.5 66 +41 +50 опасность
перегрева
1013.2 1009.7
18 14.12 С 5 10 км мгла 3/3 450 м
[Cu hum]
+32.4 +23.3 59 +43 +48 опасность
перегрева
1010.9 1007.4
21 14.12 С 5 10 км мгла 1/1 450 м
[Cu hum]
+30.4 +22.7 63 +40 +41 очень
душно
1009.5 1006.0
00 15.12 С 4 10 км мгла ясно +27.1 +23.1 79 +36 +36 очень
душно
1010.4 1006.9 +32.4
03 15.12 С 5 10 км мгла ясно +26.7 +23.2 81 +36 +36 очень
душно
1011.9 1008.4
09 15.12 З 1 10 км мгла 4/4 300 м
[St]
+24.2 +22.2 89 +31 +31 очень
душно
1010.9 1007.4
12 15.12 С 3 600 м туман на расстоянии 8/3 600 м
[St Cs]
+25.5 +23.0 86 +34 +34 очень
душно
1012.5 1009.0 +24.0
15 15.12 СВ 5 10 км мгла {туман} 5/3 360 м
[Sc Cs]
+30.0 +22.2 63 +39 +43 очень
душно
1013.5 1010.0
18 15.12 С 4 10 км мгла 1/1 450 м
[Cu hum]
+32.9 +22.9 56 +43 +52 опасность
перегрева
1011.1 1007.8
21 15.12 С 4 10 км мгла 1/1 450 м
[Cu hum]
+30.2 +22.8 65 +40 +42 очень
душно
1009.7 1006.2
00 16.12 С 6 10 км мгла 1/1 450 м
[Sc]
+26.7 +23.7 84 +37 +37 очень
душно
1010.5 1007.0 +33.8
06 16.12 С 4 10 км мгла ясно +26.7 +22 +22 комфорт 1010.9 1007.4
09 16.12 С 5 10 км мгла 3/3 360 м
[Sc]
+25.6 +22.0 81 +33 +33 очень
душно
1010.1 1006.6
12 16.12 С 5 10 км мгла ясно +25.8 +22.2 81 +34 +34 очень
душно
1012.2 1008.7 +25.2
15 16.12 С 5 10 км мгла ясно +29.4 +22.0 64 +38 +44 очень
душно
1010.3 1009.8
18 16.12 СВ 7 10 км мгла ясно +31.0 +21.9 58 +39 +43 очень
душно
1010.9 1007.4
21 16.12 С 7 10 км мгла ясно +28.6 +21.7 66 +37 +37 очень
душно
1009.4 1005.9
00 17.12 С 7 10 км мгла 1/1 450 м
[Sc]
+26.1 +22.8 82 +35 +35 очень
душно
1010.3 1006.8 +31.2
03 17.12 С 5 10 км мгла 3/3 360 м
[Sc]
+26.0 +22.6 82 +34 +34 очень
душно
1011.4 1007.9
06 17.12 С 4 10 км мгла ясно +26.2 +20.8 72 +33 +33 очень
душно
1009.9 1006.4
09 17.12 С 3 10 км мгла 3/3 360 м
[Sc]
+25.5 +24.1 92 +35 +35 очень
душно
1009.2 1005.7
12 17.12 С 3 4000 м дымка 8/8 300 м
[St]
+25.2 +24.4 95 +35 +35 очень
душно
1011.6 1008.1 +24.5
15 17.12 СВ 4 10 км мгла ясно +30.0 +23.5 68 +41 +48 опасность
перегрева
1013.1 1009.6

 

Местоположение метеостанции Barranquilla (Колумбия): широта 10.88 долгота -74.78 высота над уровнем моря 30 м.

В архиве по умолчанию представлена погода в Barranquilla за последнюю неделю. Архивные данные за месяц целиком и за предыдущие месяцы, начиная с января 2011 года, Вы можете получить, выбрав интересующий диапазон дат из раскрывающегося списка и нажав кнопку "Ввод!".


*Определитесь, кто Вы:
робот инопланетянин человек

Внимание! Время в таблицах - всемирное. Для получения местного времени необходимо прибавить поправку, которая в Barranquilla равна -5 ч.

Смотрите также архив погоды в соседних городах и на ближайших метеорологических станциях:

Погода в Santa Marta (Колумбия) (66 км)
Погода в Cartagena (Колумбия) (93 км)
Погода в Valledupar (Колумбия) (175 км)
Погода в Riohacha (Колумбия) (214 км)
Погода в Monteria (Колумбия) (257 км)
Погода в Maracaibo - La Chinit (Венесуэла) (335 км)
Погода в Maracaibo - La Canada (Венесуэла) (344 км)
Погода в Apartado (Колумбия) (400 км)
Погода в Cucuta (Колумбия) (412 км)
Погода в San Antonio del Tachira (Венесуэла) (423 км)

Пояснения к столбцам:

Ветер - указаны скорость ветра в м/с - средняя за 10 мин, порывы в срок и между сроками (в фигурных скобках) и направление, откуда дует ветер: С - северный, СВ - северо-восточный, В - восточный, ЮВ - юго-восточный, Ю - южный, ЮЗ - юго-западный, З - западный, СЗ - северо-западный.
Видимость - горизонтальная дальность видимости в метрах или километрах. При видимости от 1 до 10 км при отсутствии осадков обычно наблюдается дымка, при ухудшении видимости до 1 км и менее - туман. В сухую погоду видимость может ухудшаться дымом, пылью или мглою.
Явления - указаны атмосферные явления, наблюдавшиеся в срок или в последний час перед сроком; фигурными скобками обозначены явления, наблюдавшиеся между сроками (за 1-3 часа до срока); квадратными скобками обозначены град или гололедные отложения с указанием их диаметра в мм.
Облачность - указаны через наклонную черту общая и нижняя облачность в баллах и высота нижней границы облаков в метрах; квадратными скобками обозначены формы облаков: Ci - перистые, Cs - перисто-слоистые, Cc - перисто-кучевые, Ac - высококучевые, As - высокослоистые, Sc - слоисто-кучевые, Ns - слоисто-дождевые, Cu - кучевые, Cb - кучево-дождевые. Подробнее классификацию облаков см. в Атласе облаков (PDF).
T - Температура воздуха - температура, измеренная на высоте 2 м над землей.
Td - Температура точки росы - температура, при понижении до которой содержащийся в воздухе водяной пар достигнет насыщения.
f - Относительная влажность воздуха - влажноcть воздуха, измеренная на высоте 2 м над землей.
Te - Эффективная температура - температура, которую ощущает одетый по сезону человек в тени. Характеристика душности погоды. При расчете учитывается влияние влажности воздуха и скорости ветра на теплоощущения человека.
Tes - Эффективная температура на солнце - температура, которую ощущает человек, с поправкой на солнечный нагрев. Характеристика знойности погоды. Зависит от высоты солнца над горизонтом, облачности и скорости ветра. Ночью, в пасмурную погоду, а также при ветре 12 м/с и более поправка равна нулю.
P - Атмосферное давление - приведенное к уровню моря атмосферное давление.
Po - Атмосферное давление - измеренное на уровне метеостанции атмосферное давление.
Tmin - Минимальная температура - минимум температуры воздуха на высоте 2 м над землей.
Tmax - Максимальная температура - максимум температуры воздуха на высоте 2 м над землей.
R - Количество осадков - Количество выпавших осадков за период времени, мм. При наведении курсора мыши на число - период времени, за который выпало указанное количество осадков.
R24 - Количество осадков - Количество выпавших осадков за 24 часа, мм.
S - Снежный покров - Высота снежного покрова, см. При наведении курсора мыши на число - состояние снежного покрова и степень покрытия местности в баллах.